Location: Jackson
(42.2460°N, 84.4010°W)
Time: 11:46:48
(UTC-04:00)

Injun/Solrad 3 - Pass Details

Date: 14 February 2026
Orbit: 871 x 985 km, 66.8° (Epoch: 16 March)

Event Time Altitude Azimuth Distance (km) Brightness Sun altitude
Rises 21:14:26 0° 330° (NNW) 3,570 11.5 -34.7°
Reaches altitude 10° 21:16:57 10° 333° (NNW) 2,641 10.7 -35.1°
Enters shadow 21:20:09 33° 340° (NNW) 1,539 9.2 -35.7°
